Regional Weather Roundup
Issued by NWS Wilmington, NC

Home | Current Version | Previous Version | Text Only | Print | Product List | Glossary On
Versions: 1 2 3 4 5 6 7 8 9 10 11 12 13 14 15 16 17 18 19 20 21 22 23 24 25 26 27 28 29 30 31 32 33 34 35 36 37 38 39 40 41 42 43 44 45 46 47 48 49 50
000
ASUS42 KILM 080213
RWRILM
RWRILM
REGIONAL HOURLY WEATHER ROUNDUP
NATIONAL WEATHER SERVICE WILMINGTON NC
1000 PM EDT TUE JUL 07 2015

NOTE: "FAIR" INDICATES FEW OR NO CLOUDS BELOW 12,000 FEET WITH NO
SIGNIFICANT WEATHER AND/OR OBSTRUCTIONS TO VISIBILITY.

...............WFO WILMINGTON COUNTY WARNING AREA...............

......COASTAL NC AND SC COUNTIES......

CITY           SKY/WX    TMP DP  RH WIND       PRES   REMARKS
WILMINGTON     CLEAR     80  73  79 SW9       30.14R
N MYRTLE BEACH CLEAR     81  75  82 SW13      30.14R
MYRTLE BEACH   CLEAR     81  72  74 SW7       30.15R

......INLAND NC AND SC COUNTIES.......

CITY           SKY/WX    TMP DP  RH WIND       PRES   REMARKS
LUMBERTON      CLEAR     81  71  71 S6        30.11R
ELIZABETHTOWN  CLEAR     80  74  82 S3        30.12R
WHITEVILLE     CLEAR     78  74  86 CALM      30.13R
FLORENCE       CLEAR     80  72  76 S7        30.12R
DARLINGTON     CLEAR     82  70  65 S8        30.13R

....................REST OF NORTH CAROLINA......................

.........EASTERN NC.........

CITY           SKY/WX    TMP DP  RH WIND       PRES   REMARKS
CAPE HATTERAS  CLEAR     78  75  90 SW10      30.13R
JACKSONVILLE   CLEAR     77  70  78 S7        30.13R
MOREHEAD CITY  CLEAR     80  76  87 SW14      30.14R
KENANSVILLE    CLEAR     79  70  75 CALM      30.13R
NEW BERN       PTCLDY    78  73  84 S7        30.14R
ELIZABETH CITY CLEAR     82  74  76 S10       30.09R

.........CENTRAL NC.........

CITY           SKY/WX    TMP DP  RH WIND       PRES   REMARKS
RALEIGH DURHAM PTCLDY    82  72  71 S9        30.09R
ROCKY MOUNT    CLEAR     82  72  71 S9        30.09R
ROANOKE RAPIDS NOT AVBL
FAYETTEVILLE   CLEAR     81  73  76 S9        30.11R
HOFFMAN        PTCLDY    82  73  73 S9        30.14R

.........WESTERN NC.........

CITY           SKY/WX    TMP DP  RH WIND       PRES   REMARKS
CHARLOTTE      PTCLDY    82  66  58 SW7       30.10R
GREENSBORO     MOCLDY    81  70  69 S6        30.09R
HICKORY        NOT AVBL
BOONE          NOT AVBL
ASHEVILLE      NOT AVBL

.....................REST OF SOUTH CAROLINA.....................

.........EASTERN SC.........

CITY           SKY/WX    TMP DP  RH WIND       PRES   REMARKS
CHARLESTON     PTCLDY    77  73  87 S5        30.14R
BEAUFORT MCAS  MOCLDY    79  74  84 VRB5      30.14R
HILTON HEAD    MOCLDY    79  75  89 S5        30.16R

.........CENTRAL SC.........

CITY           SKY/WX    TMP DP  RH WIND       PRES   REMARKS
COLUMBIA       PTCLDY    83  72  69 S8        30.11R
ORANGEBURG     CLEAR     77  72  84 S3        30.13R
SUMTER SHAW    CLEAR     79  72  78 S7        30.11R

.........WESTERN SC.........

CITY           SKY/WX    TMP DP  RH WIND       PRES   REMARKS
GREENVILLE     NOT AVBL
ROCK HILL      PTCLDY    80  67  64 SW7       30.11R
ANDERSON       MOCLDY    78  71  79 S5        30.13R
CLEMSON        NOT AVBL
GREENWOOD      MOCLDY    79  71  76 CALM      30.14R


...................COASTAL AND OFFSHORE REPORTS..................

................LOCAL PIERS AND NC RESERVE................


STATION/POSITION TIME  SKY/WX   TEMP    WIND        PRES    VSBY
                                AIR SEA DIR/SP/G
                 (UTC)          (F)     (DEG/KT/KT) (MB)    (MI)
JOHNY MRCER PIER 0100            81 79  220/ 13/ 15 1019.6R
NC RESRV MASNBRO NOT AVBL
OCEAN CREST PIER NOT AVBL
SPRINGMAID  PIER 0100            81 83  180/ 15/ 17 1020.0R


................COASTAL AND OFFSHORE BUOYS................


STATION/POSITION TIME  SKY/WX   TEMP    WIND        PRES    VSBY
                                AIR SEA DIR/SP/G
                 (UTC)          (F)     (DEG/KT/KT) (MB)    (MI)
DIMNDSHOAL 41025 0150            82 83  220/ 17/ 19 1020.0R
WVE H/P(F/S)=  3/ 9 WND WVE H/P(F/S)=  3/ 4 SWL H/P/D(F/S/D)=  2/130/ 9

CAPE LOOKOUT     0200            80     220/ 11/ 16 1020.5R
ONSLOW BAY 41036 NOT AVBL
5 WRITEBCH 41038 0108            80 80  210/ 12/ 16 1020.2R
MASONBORO  41110 0119               80                N/A
WVE H/P(F/S)=  3/ 8 WND WVE H/P(F/S)=  3/ 8

WILM HARBR 41108 0111               83                N/A
WVE H/P(F/S)=  3/ 4 WND WVE H/P(F/S)=  3/ 4

27WRITEBCH 41037 0100               81  220/ 12/ 14   N/A
FRYING PAN 41013 0150            82 80  200/ 10/ 12 1021.2R
WVE H/P(F/S)=  3/ 8 WND WVE H/P(F/S)=  2/ 5 SWL H/P/D(F/S/D)=  2/130/ 8

SUNST NRSH 41024 0108            81     220/ 14/ 17 1019.8
CAPRS NRSH 41029 0108            81     210/ 14/ 17 1020.5R
EDISTO     41004 0150            83 83  200/ 14/ 16 1020.2R
WVE H/P(F/S)=  3/ 8 WND WVE H/P(F/S)=  2/ 4 SWL H/P/D(F/S/D)=  2/ 8



..........OFFSHORE BUOYS BEYOND 100 NM OFFSHORE...........
.....IN A TRIANGLE---HAT TO BERMUDA TO BAHAMAS TO HAT.....


STATION/POSITION TIME  SKY/WX   TEMP    WIND        PRES    VSBY
                                AIR SEA DIR/SP/G
                 (UTC)          (F)     (DEG/KT/KT) (MB)    (MI)
150E HAT   41001 NOT AVBL
W BERMUDA  41048 0150            82 83  190/  2/  4 1023.7R
WVE H/P(F/S)=  3/ 8 SWL H/P/D(F/S/D)=  3/110/ 8

ATLANTIC S 41049 0150            82 84   50/ 12/ 12 1023.8R
WVE H/P(F/S)=  4/ 8 WND WVE H/P(F/S)=  2/ 5 SWL H/P/D(F/S/D)=  3/110/ 8

E BAHAMAS  41046 0150            83 83   80/ 12/ 14 1021.5R
WVE H/P(F/S)=  5/ 8 WND WVE H/P(F/S)=  3/ 5 SWL H/P/D(F/S/D)=  3/120/ 8

NE BAHAMAS 41047 0150            83 84  110/ 10/ 12 1022.6R
WVE H/P(F/S)=  3/ 8 WND WVE H/P(F/S)=  2/ 5 SWL H/P/D(F/S/D)=  3/120/ 8

120E CANVRL41010 0120            83 83  180/  4/  6 1021.8R

END


USA.gov is the U.S. government's official web portal to all federal, state and local government web resources and services.